Tracking 22879 objects as of 20-Apr-2021
HD Live streaming from Space Station
objects crossing your sky now

GLOBALSTAR M024

Track GLOBALSTAR M024 now!
10-day predictions
GLOBALSTAR M024 is classified as:


NORAD ID: 25883
Int'l Code: 1999-043A
Perigee: 2,115.6 km
Apogee: 2,118.8 km
Inclination: 52.0 °
Period: 129.7 minutes
Semi major axis: 8488 km
RCS: 2.6378 m2 (large)
Launch date: August 17, 1999
Source: Globalstar (GLOB)
Launch site: AIR FORCE EASTERN TEST RANGE (AFETR)
aabbcc
Your satellite tracking list
Your tracking list is empty




NASA's NSSDC Master Catalog

Two Line Element Set (TLE):
1 25883U 99043A   21109.56730821 -.00000108  00000-0 -15189-2 0  9993
2 25883  52.0001 209.3286 0001869 138.1580 234.7171 11.10143068946106
Source of the keplerian elements: AFSPC